CW4535 Weather Reports


time (UTC)temp
C
wind
direction
speed
KPH
gust
KPH
rain 1hr
cm
rain 24hr
cm
rain mn
cm
humidity
%
barometer
mb
20260506015003 11 7 3.2 17.7 0.00 0.00 0.00 77 1010.5
20260506014003 11 4 4.8 19.3 0.00 0.00 0.00 78 1010.4
20260506013003 11 9 3.2 16.1 0.00 0.00 0.00 78 1010.0
20260506012003 11 357 4.8 16.1 0.00 0.00 0.00 78 1009.7
20260506011003 11 6 1.6 12.9 0.00 0.00 0.00 78 1009.7
20260506010003 11 11 1.6 12.9 0.00 0.00 0.00 77 1009.7
20260506005003 11 359 4.8 17.7 0.00 0.00 0.00 77 1009.7
20260506004004 11 7 3.2 14.5 0.00 0.00 0.00 77 1009.7
20260506003218 11 13 4.8 19.3 0.00 0.00 0.00 76 1009.6
20260506002003 11 358 8.0 19.3 0.00 0.00 0.00 75 1009.4
20260506001220 11 357 6.4 25.7 0.00 0.00 0.00 75 1009.2
20260506000003 11 360 6.4 25.7 0.00 0.00 0.00 74 1009.3
20260505235003 11 4 4.8 14.5 0.00 0.00 0.00 74 1009.6
20260505234004 12 18 1.6 9.7 0.00 0.00 0.00 74 1009.0
20260505233003 12 359 4.8 14.5 0.00 0.00 0.00 73 1009.4
20260505232003 12 357 4.8 19.3 0.00 0.00 0.00 73 1009.1
20260505231003 12 357 8.0 22.5 0.00 0.00 0.00 72 1008.9
20260505230003 12 3 4.8 17.7 0.00 0.00 0.00 73 1008.8
20260505225003 12 13 6.4 25.7 0.00 0.00 0.00 73 1008.6
20260505224003 12 17 6.4 20.9 0.00 0.00 0.00 72 1008.2
20260505223003 12 9 6.4 22.5 0.00 0.00 0.00 71 1008.3
20260505222221 12 5 6.4 20.9 0.00 0.00 0.00 71 1008.0
20260505221003 12 4 6.4 22.5 0.00 0.00 0.00 71 1007.8
20260505220003 12 356 9.7 27.4 0.00 0.00 0.00 72 1008.0
20260505215003 12 18 4.8 17.7 0.00 0.00 0.00 73 1007.9
20260505214003 12 17 4.8 16.1 0.00 0.00 0.00 74 1007.8
20260505213003 12 360 6.4 25.7 0.00 0.00 0.00 74 1008.0
20260505212003 12 359 6.4 22.5 0.00 0.00 0.00 74 1007.9
20260505211003 12 4 8.0 20.9 0.00 0.00 0.00 74 1007.6
20260505210003 12 350 8.0 27.4 0.00 0.00 0.00 74 1007.5
20260505205003 13 352 8.0 24.1 0.00 0.00 0.00 75 1007.5
20260505204220 12 351 8.0 24.1 0.00 0.00 0.00 75 1007.8
20260505203003 12 358 8.0 24.1 0.00 0.00 0.00 76 1007.6
20260505202003 13 353 8.0 27.4 0.00 0.00 0.00 76 1007.5
20260505201003 13 352 9.7 24.1 0.00 0.00 0.00 77 1007.4
20260505200003 13 349 8.0 30.6 0.00 0.00 0.00 77 1007.3
20260505195003 13 1 6.4 29.0 0.00 0.00 0.00 78 1007.3
20260505194003 13 2 6.4 16.1 0.00 0.00 0.00 78 1007.5
20260505193003 13 358 8.0 25.7 0.00 0.00 0.00 77 1007.3
20260505192003 13 14 6.4 17.7 0.00 0.00 0.00 78 1007.0
20260505191003 13 350 8.0 24.1 0.00 0.00 0.00 79 1006.9
20260505190004 13 360 8.0 22.5 0.00 0.00 0.00 80 1006.8
20260505185220 13 354 8.0 24.1 0.00 0.00 0.00 80 1006.9
20260505184003 13 11 6.4 20.9 0.00 0.00 0.00 82 1006.7
20260505183003 13 1 4.8 24.1 0.00 0.00 0.00 82 1006.8
20260505182003 13 6 4.8 11.3 0.00 0.00 0.00 83 1006.8
20260505181003 13 349 8.0 20.9 0.00 0.00 0.00 84 1007.0
20260505180004 13 348 8.0 24.1 0.00 0.00 0.00 84 1006.5
20260505175003 13 335 8.0 20.9 0.00 0.00 0.00 84 1006.2
20260505174003 13 350 8.0 24.1 0.00 0.00 0.00 85 1006.0
20260505173003 13 355 8.0 27.4 0.00 0.00 0.00 85 1005.9
20260505172003 13 360 4.8 14.5 0.00 0.00 0.00 85 1006.1
20260505171220 13 356 8.0 27.4 0.00 0.00 0.00 85 1006.2
20260505170003 13 360 4.8 17.7 0.00 0.00 0.00 85 1005.5
20260505165003 13 356 6.4 19.3 0.00 0.00 0.00 85 1005.5
20260505164003 13 5 6.4 17.7 0.00 0.00 0.00 85 1005.3
20260505163218 13 360 8.0 25.7 0.00 0.00 0.00 85 1005.2
20260505162003 14 360 8.0 22.5 0.00 0.00 0.00 85 1005.2
20260505161003 15 9 4.8 19.3 0.00 0.00 0.00 85 1005.1
20260505153219 16 359 6.4 14.5 0.00 0.00 0.00 84 1004.3
20260505152004 16 344 8.0 20.9 0.00 0.00 0.00 82 1004.1
20260505151003 17 343 8.0 22.5 0.00 0.00 0.00 82 1003.9
20260505125003 18 84 4.8 14.5 0.00 0.00 0.00 85 1002.6
20260505124003 18 80 1.6 9.7 0.00 0.00 0.00 85 1002.7
20260505123003 18 70 4.8 20.9 0.00 0.00 0.00 85 1002.6
20260505122003 18 72 3.2 12.9 0.00 0.00 0.00 85 1002.4
20260505121218 18 69 3.2 16.1 0.00 0.00 0.00 86 1002.5
20260505120004 18 76 3.2 14.5 0.00 0.00 0.00 86 1002.5
20260505115004 18 80 4.8 17.7 0.00 0.00 0.00 86 1002.4
20260505114003 18 75 1.6 12.9 0.00 0.00 0.00 86 1002.4
20260505113004 18 0 0.0 0.0 0.00 0.00 0.00 86 1002.4
20260505112217 18 40 0.0 6.4 0.00 0.00 0.00 86 1002.5
20260505111218 18 72 0.0 6.4 0.00 0.00 0.00 86 1002.4
20260505102218 18 73 6.4 20.9 0.00 0.00 0.00 86 1001.5
20260505101003 18 69 3.2 22.5 0.00 0.00 0.00 86 1001.3
20260505100003 18 67 3.2 17.7 0.00 0.00 0.00 86 1001.2
20260505095003 18 66 3.2 14.5 0.00 0.00 0.00 86 1001.2
20260505094003 18 73 3.2 12.9 0.00 0.00 0.00 85 1001.2
20260505093003 18 70 3.2 19.3 0.00 0.00 0.00 84 1001.2
20260505092219 18 75 4.8 16.1 0.00 0.00 0.00 84 1001.3
20260505091003 18 73 1.6 12.9 0.00 0.00 0.00 83 1001.3
20260505090003 18 67 3.2 12.9 0.00 0.00 0.00 82 1001.3
20260505085003 19 77 1.6 11.3 0.00 0.00 0.00 81 1001.3
20260505084004 20 76 3.2 14.5 0.00 0.00 0.00 80 1001.3
20260505083003 20 74 1.6 12.9 0.00 0.00 0.00 80 1001.4
20260505082003 20 76 3.2 12.9 0.00 0.00 0.00 79 1001.4
20260505081220 20 74 3.2 12.9 0.00 0.00 0.00 79 1001.4
20260505080004 20 74 3.2 14.5 0.00 0.00 0.00 79 1001.5
20260505075003 20 74 4.8 19.3 0.00 0.00 0.00 79 1001.6
20260505074218 20 73 0.0 1.6 0.00 0.00 0.00 79 1001.7
20260505073003 20 78 3.2 12.9 0.00 0.00 0.00 80 1001.9
20260505072003 20 70 0.0 6.4 0.00 0.00 0.00 79 1002.3
20260505071221 20 75 0.0 9.7 0.00 0.00 0.00 79 1002.3
20260505070004 20 79 0.0 3.2 0.00 0.00 0.00 79 1002.3
20260505065218 20 0 0.0 0.0 0.00 0.00 0.00 78 1002.6
20260505064219 20 0 0.0 0.0 0.00 0.00 0.00 77 1002.6
20260505063003 20 0 0.0 0.0 0.00 0.00 0.00 77 1002.9
20260505062003 20 0 0.0 0.0 0.00 0.00 0.00 77 1002.9
20260505061003 20 0 0.0 0.0 0.00 0.00 0.00 76 1002.7
20260505060004 20 0 0.0 0.0 0.00 0.00 0.00 76 1002.4
20260505055003 20 0 0.0 0.0 0.00 0.00 0.00 75 1002.2
20260505054003 20 124 0.0 12.9 0.00 0.00 0.00 75 1002.0
20260505053003 20 152 1.6 4.8 0.00 0.00 0.00 75 1001.8
20260505052221 21 143 1.6 9.7 0.00 0.00 0.00 74 1001.9
20260505051003 21 138 3.2 12.9 0.00 0.00 0.00 74 1001.6
20260505041003 21 134 4.8 16.1 0.00 0.00 0.00 70 1001.9
20260505040004 21 130 3.2 14.5 0.00 0.00 0.00 69 1001.9
20260505035219 21 141 3.2 17.7 0.00 0.00 0.00 69 1001.9
20260505034003 21 139 3.2 9.7 0.00 0.00 0.00 69 1002.4
20260505033003 21 136 3.2 19.3 0.00 0.00 0.00 68 1002.4
20260505032003 21 128 3.2 17.7 0.00 0.00 0.00 67 1002.5
20260505031003 21 141 1.6 8.0 0.00 0.00 0.00 66 1002.5
20260505030003 22 135 4.8 17.7 0.00 0.00 0.00 65 1002.7
20260505025004 22 132 1.6 16.1 0.00 0.00 0.00 65 1002.8
20260505024003 22 132 1.6 20.9 0.00 0.00 0.00 65 1002.9
20260505023003 22 135 1.6 11.3 0.00 0.00 0.00 65 1003.0
20260505022003 22 139 3.2 12.9 0.00 0.00 0.00 64 1002.8
20260505021003 22 142 1.6 11.3 0.00 0.00 0.00 64 1002.6
20260505020220 22 145 3.2 11.3 0.00 0.00 0.00 64 1002.6